Wind_Speed
21 21 21 22 22 22 22 23 23 24 24 24 23 23 23 24 24 24 24 24 24 24 25 25 25 25 25 24 24 24 24 25 24 24 24 25 24 24 23 23 23 23 23
22 22 23 23 23 24 24 24 24 24 24 23 24 24 24 24 25 26 26 25 25 26 25 26 26 26 26 26 26 25 25 25 24 24 24 24 24 24 24 23 23 22 22
23 23 24 24 24 25 25 25 24 24 23 23 23 24 25 25 26 26 26 26 27 26 26 26 26 26 27 26 26 26 26 26 25 25 24 25 25 25 24 24 23 22 22
24 25 25 25 25 25 25 24 24 24 24 24 25 25 25 26 26 26 27 27 27 27 27 27 27 27 27 27 26 26 26 26 26 26 26 25 25 24 24 24 24 23 23
26 26 25 26 26 26 25 25 25 25 25 25 25 26 26 26 26 27 27 27 27 28 28 27 27 27 27 26 27 27 27 27 26 27 27 27 26 25 25 25 25 24 24
26 27 27 27 27 26 26 26 26 26 26 26 26 26 26 27 27 27 27 27 27 27 27 27 27 27 27 26 27 27 27 28 28 28 28 28 27 27 27 26 26 25 25
27 27 27 27 27 26 26 27 26 26 26 27 26 26 27 27 28 28 27 27 27 27 27 27 28 28 28 28 28 28 28 28 29 28 28 28 28 27 27 27 26 26 25
28 27 27 28 27 27 26 27 26 26 26 26 26 26 26 26 26 26 27 27 27 27 27 27 27 27 28 28 29 29 29 28 28 28 28 28 28 27 27 27 27 26 26
28 28 28 28 28 27 27 27 27 27 27 27 27 26 26 26 26 26 27 28 28 28 28 28 28 29 29 29 30 30 29 29 29 29 29 29 28 28 28 28 28 28 27
29 29 29 28 27 27 27 27 27 27 27 28 28 28 27 27 27 27 27 28 28 28 28 28 28 28 29 30 30 29 29 29 29 29 30 30 30 30 29 29 29 30 29
28 28 28 28 28 28 27 27 27 28 28 28 29 29 28 28 27 27 27 28 28 28 28 28 28 28 28 29 29 29 29 29 30 30 30 30 30 30 30 30 30 30 29
27 27 28 27 27 28 27 28 28 28 29 29 29 29 28 28 28 27 27 27 28 28 28 28 28 28 29 29 29 29 29 29 30 30 30 30 30 30 30 30 30 30 30
27 27 27 27 27 28 28 28 28 29 29 28 29 29 29 29 29 28 28 28 28 28 28 29 28 29 29 29 28 28 28 28 28 28 29 29 30 29 30 30 31 31 31
27 27 27 27 28 28 28 28 29 29 29 28 29 29 30 29 29 29 29 29 29 29 29 28 28 28 28 28 28 27 28 28 28 28 27 28 29 30 30 30 31 32 32
28 28 27 28 28 28 28 28 29 29 29 29 29 29 29 29 29 29 30 30 30 29 28 28 29 28 28 28 28 27 27 27 28 28 28 28 29 29 30 30 31 32 32
28 28 28 29 29 29 29 29 29 29 29 29 29 28 29 29 29 29 29 29 29 29 29 28 28 27 27 27 28 28 27 27 28 28 27 28 29 30 30 30 31 31 32
29 29 29 29 29 29 28 28 28 28 28 28 28 28 28 29 29 28 28 28 29 29 29 28 27 27 27 27 27 27 28 29 29 29 28 28 28 29 29 29 30 31 31
30 29 29 29 29 29 28 28 27 27 27 27 26 27 27 28 28 28 28 28 28 29 29 29 29 28 28 28 28 28 28 29 29 29 28 28 28 27 28 29 29 30 31
30 30 29 28 28 28 28 27 27 27 27 26 26 26 26 26 27 27 27 28 28 28 28 29 29 29 28 28 28 27 27 27 27 28 27 26 26 26 27 28 29 29 30
29 28 27 27 27 27 27 27 27 27 28 27 26 26 26 25 26 26 26 27 28 28 28 28 28 29 28 28 27 27 27 26 26 26 26 26 26 26 27 27 28 29 29
28 27 27 27 26 27 27 27 27 27 28 27 27 27 26 26 26 25 26 27 28 28 28 28 28 28 27 26 27 27 27 26 25 24 24 25 25 26 27 27 27 27 28
28 28 27 27 28 28 27 27 27 28 28 28 28 27 27 27 27 27 27 27 27 27 27 27 26 26 26 25 25 25 25 25 25 25 25 25 26 27 27 27 26 26 27
28 28 28 28 29 28 28 28 27 27 26 26 26 26 27 27 28 28 27 27 27 26 26 26 25 25 25 25 25 25 25 25 24 25 25 26 26 27 27 27 27 27 28
28 28 29 28 28 27 27 27 27 26 27 26 26 26 27 27 28 28 28 28 27 27 26 25 25 26 26 26 25 25 26 26 25 25 26 26 27 27 27 27 27 28 28
27 27 27 27 27 27 27 26 25 25 25 25 25 25 26 26 27 27 28 27 27 26 25 25 25 25 25 25 25 26 26 26 26 25 25 26 26 26 26 26 27 27 27
27 27 26 26 26 26 26 26 26 26 25 25 25 25 25 26 26 27 27 27 26 26 25 25 26 26 26 26 26 27 27 26 26 26 25 25 25 25 25 25 26 26 27
Wind_Direction
281 283 284 286 287 290 292 292 293 292 289 287 285 284 283 282 281 279 278 277 276 277 278 277 276 276 276 276 276 276 275 274 274 272 271 271 273 273 273 272 274 272 270
281 283 285 286 287 289 292 294 294 292 289 286 285 283 282 282 281 280 279 278 277 277 278 278 278 278 277 278 277 277 276 275 274 273 272 270 271 271 271 271 272 270 268
282 283 284 286 287 288 291 293 294 292 289 286 286 284 283 282 281 280 279 278 278 278 278 277 277 278 279 278 278 277 275 274 273 273 272 271 270 269 269 270 270 269 267
282 284 285 286 287 288 290 291 291 291 290 288 287 286 285 284 281 279 279 279 279 279 279 278 277 277 278 277 276 276 275 273 274 273 271 270 269 267 268 268 269 267 266
282 283 284 285 286 287 287 288 289 289 290 290 290 289 287 286 284 281 280 280 279 279 278 278 278 278 278 275 274 274 275 274 273 273 272 270 269 267 266 266 267 266 266
281 282 284 284 284 285 286 286 287 288 290 291 291 290 288 287 286 284 281 281 279 279 278 278 278 277 276 274 273 273 274 274 273 272 271 270 269 267 265 266 266 265 265
282 282 282 282 282 282 284 285 287 288 290 291 290 290 289 288 286 285 282 281 281 281 281 281 279 277 275 274 273 273 274 274 273 272 271 271 269 266 265 265 265 266 265
283 282 281 280 280 281 283 284 286 288 289 290 290 291 291 291 290 287 283 282 283 282 282 282 282 281 277 275 274 273 273 273 272 271 270 270 268 267 266 265 265 265 266
283 282 281 280 280 281 282 284 284 285 286 288 288 291 292 292 291 290 286 284 283 282 283 282 283 283 280 278 276 274 272 271 270 269 269 268 268 266 265 265 265 264 264
282 282 281 281 280 280 281 283 283 284 285 287 287 289 291 291 291 291 289 287 286 284 284 284 284 283 283 280 277 273 271 269 268 268 267 267 267 265 265 265 264 263 263
282 281 281 281 280 279 281 283 284 284 284 286 287 288 290 291 291 292 290 288 287 285 284 284 284 282 283 282 278 275 272 269 268 269 267 266 265 265 264 265 263 262 262
282 281 281 281 280 279 280 283 283 283 284 285 286 287 288 289 289 291 291 290 288 285 284 284 283 282 281 282 279 277 274 269 268 268 267 267 266 265 264 264 262 263 263
282 282 282 281 280 280 281 282 282 282 284 285 285 286 287 288 289 289 289 288 288 287 286 284 283 283 282 282 280 277 274 271 269 269 268 267 266 266 266 264 262 262 263
282 282 282 281 281 282 282 281 282 283 284 285 285 286 286 286 288 288 287 285 284 286 286 285 284 285 284 283 280 278 275 271 270 269 269 266 265 266 266 265 264 263 263
280 280 280 281 282 281 281 282 282 282 284 284 285 286 286 286 286 286 285 284 284 284 285 284 284 284 284 282 280 278 276 273 272 271 268 267 266 266 266 265 264 264 263
279 279 279 281 281 281 281 282 283 284 284 285 285 286 286 285 285 285 284 284 284 285 285 285 285 285 285 283 280 278 276 276 275 273 269 267 267 266 266 266 264 264 264
279 279 279 280 280 280 281 282 282 284 284 286 284 285 286 285 285 285 285 285 285 285 285 285 285 286 286 284 283 280 277 276 276 274 269 267 267 266 266 265 265 265 266
279 280 281 281 280 279 279 280 280 282 284 286 285 284 285 285 285 285 286 287 287 285 285 285 284 285 285 285 285 283 280 278 276 275 272 269 268 266 266 266 267 267 267
281 281 281 280 279 278 278 280 280 282 283 284 284 285 286 285 285 286 287 288 287 287 286 286 285 284 284 284 285 283 281 278 276 275 273 270 270 269 268 269 269 268 269
283 282 280 279 278 277 278 279 280 281 283 283 283 285 286 288 288 288 288 289 289 289 288 288 287 285 283 282 282 282 280 279 276 275 274 271 271 270 270 270 270 269 268
281 279 278 278 278 278 279 280 281 282 283 283 284 285 286 287 289 291 293 293 293 291 290 289 289 288 286 284 282 282 281 279 278 277 275 273 272 272 272 271 271 269 268
279 277 276 276 278 279 279 280 279 280 280 281 282 283 285 286 288 290 293 294 293 293 292 291 289 288 287 287 287 286 284 281 279 277 276 274 272 272 271 270 269 270 269
277 276 275 276 278 277 279 280 279 279 279 280 281 283 285 287 289 290 292 292 292 292 293 292 290 288 286 285 285 286 285 284 281 280 278 276 275 273 272 271 269 270 269
278 277 276 277 278 278 280 279 279 279 279 280 281 282 285 287 288 290 290 290 291 291 291 292 292 289 285 283 283 283 284 283 282 280 279 277 276 276 275 273 271 272 271
280 280 280 279 277 278 280 280 280 281 281 281 282 284 285 287 289 291 291 290 290 290 290 290 291 289 286 284 282 281 283 283 282 280 280 279 277 277 276 274 273 274 273
279 280 280 280 279 279 279 279 280 282 282 282 282 283 285 288 290 291 291 290 289 289 290 290 290 288 286 284 283 283 284 284 281 280 280 279 278 277 276 275 275 275 274
Height
5796 5795 5794 5793 5792 5791 5789 5787 5786 5784 5783 5781 5780 5779 5778 5777 5776 5776 5775 5775 5775 5774 5774 5774 5774 5774 5773 5773 5773 5772 5772 5771 5772 5772 5773 5773 5773 5773 5772 5772 5772 5772 5772
5790 5790 5789 5787 5786 5785 5783 5781 5780 5778 5776 5775 5774 5773 5772 5771 5770 5769 5769 5768 5768 5768 5767 5767 5767 5766 5766 5766 5765 5765 5765 5764 5764 5765 5765 5765 5765 5766 5766 5766 5766 5766 5766
5784 5783 5783 5781 5780 5779 5777 5775 5773 5772 5770 5769 5767 5766 5765 5764 5763 5762 5761 5761 5761 5760 5760 5760 5759 5759 5759 5758 5758 5758 5757 5757 5757 5757 5758 5758 5758 5758 5759 5759 5759 5759 5760
5778 5777 5776 5775 5774 5772 5771 5769 5767 5766 5764 5763 5761 5760 5758 5757 5756 5755 5754 5754 5753 5753 5752 5752 5751 5751 5751 5750 5750 5750 5750 5750 5750 5750 5750 5750 5751 5751 5751 5752 5753 5753 5753
5771 5770 5769 5768 5767 5765 5764 5763 5761 5760 5758 5756 5754 5753 5751 5750 5748 5747 5747 5746 5746 5745 5744 5744 5743 5743 5742 5742 5742 5742 5742 5742 5742 5742 5742 5743 5743 5744 5744 5745 5745 5746 5746
5764 5763 5762 5761 5759 5758 5757 5756 5754 5753 5751 5749 5747 5746 5744 5742 5741 5740 5739 5738 5738 5737 5736 5736 5735 5735 5734 5734 5734 5734 5734 5734 5734 5734 5735 5735 5735 5736 5737 5737 5738 5739 5740
5756 5755 5754 5753 5752 5751 5750 5749 5747 5746 5744 5742 5740 5738 5737 5735 5733 5732 5731 5730 5729 5729 5728 5728 5727 5726 5726 5726 5726 5726 5725 5725 5726 5726 5726 5727 5727 5728 5729 5729 5730 5731 5732
5748 5747 5746 5745 5744 5743 5742 5741 5740 5738 5737 5735 5733 5731 5729 5728 5726 5724 5723 5723 5722 5721 5720 5719 5719 5718 5717 5717 5717 5717 5717 5717 5717 5717 5718 5718 5719 5720 5720 5721 5722 5723 5724
5740 5739 5738 5737 5736 5735 5734 5733 5732 5731 5729 5727 5726 5724 5723 5721 5719 5717 5716 5715 5714 5713 5712 5711 5710 5709 5709 5708 5708 5708 5708 5708 5708 5708 5709 5709 5710 5711 5712 5713 5714 5716 5717
5732 5731 5730 5729 5728 5727 5726 5725 5724 5723 5721 5720 5719 5717 5715 5714 5712 5710 5708 5707 5706 5705 5704 5703 5701 5700 5699 5698 5697 5698 5698 5699 5699 5699 5700 5701 5701 5703 5704 5705 5706 5707 5708
5723 5722 5721 5721 5720 5719 5718 5717 5716 5715 5713 5711 5711 5709 5708 5706 5704 5702 5700 5699 5698 5697 5696 5695 5693 5692 5691 5689 5689 5688 5688 5689 5689 5690 5691 5692 5692 5694 5695 5696 5697 5698 5699
5715 5714 5713 5712 5711 5711 5710 5709 5708 5707 5705 5703 5702 5701 5700 5698 5696 5695 5693 5691 5690 5688 5688 5687 5685 5684 5682 5681 5680 5679 5679 5679 5680 5681 5681 5682 5683 5684 5685 5686 5687 5688 5690
5707 5706 5705 5704 5703 5702 5702 5701 5700 5698 5696 5695 5694 5693 5692 5690 5689 5687 5685 5683 5682 5681 5679 5678 5677 5675 5674 5673 5672 5671 5670 5670 5671 5671 5672 5673 5674 5675 5675 5676 5677 5679 5680
5699 5698 5697 5696 5695 5694 5693 5692 5691 5689 5688 5687 5686 5685 5683 5682 5680 5679 5677 5675 5674 5673 5671 5670 5668 5666 5665 5664 5663 5662 5662 5662 5662 5662 5663 5664 5665 5665 5666 5667 5668 5669 5670
5691 5690 5689 5688 5687 5686 5685 5684 5682 5681 5679 5679 5678 5676 5675 5674 5672 5671 5669 5668 5666 5664 5663 5661 5660 5658 5657 5655 5655 5654 5653 5653 5653 5653 5654 5654 5655 5656 5656 5657 5658 5659 5660
5683 5682 5681 5680 5679 5678 5676 5676 5674 5673 5671 5670 5669 5668 5667 5665 5664 5662 5661 5659 5658 5656 5655 5653 5652 5650 5649 5647 5646 5646 5645 5645 5645 5644 5645 5645 5646 5646 5647 5647 5647 5649 5650
5674 5674 5673 5672 5671 5669 5668 5667 5666 5665 5663 5662 5661 5660 5658 5657 5655 5654 5653 5651 5650 5648 5646 5645 5644 5642 5641 5639 5638 5638 5637 5636 5636 5636 5636 5636 5636 5637 5637 5638 5638 5639 5640
5665 5665 5664 5663 5662 5661 5660 5659 5658 5657 5656 5654 5653 5652 5650 5649 5647 5646 5645 5643 5641 5639 5638 5637 5636 5634 5633 5632 5630 5629 5628 5627 5627 5627 5627 5627 5627 5627 5628 5629 5629 5630 5631
5656 5656 5655 5654 5653 5652 5651 5651 5650 5649 5648 5646 5645 5644 5642 5641 5639 5638 5636 5635 5633 5631 5630 5628 5627 5626 5624 5623 5622 5621 5620 5619 5618 5618 5618 5618 5618 5619 5619 5620 5620 5621 5621
5647 5647 5646 5645 5644 5644 5643 5643 5642 5641 5640 5638 5637 5636 5635 5633 5632 5630 5628 5626 5625 5623 5621 5620 5618 5617 5616 5615 5614 5613 5612 5611 5610 5610 5610 5610 5610 5610 5611 5611 5611 5611 5612
5639 5638 5637 5637 5636 5635 5635 5634 5633 5633 5632 5630 5629 5628 5627 5626 5624 5623 5621 5619 5617 5615 5613 5612 5610 5609 5607 5607 5606 5605 5604 5603 5603 5602 5602 5602 5602 5602 5602 5602 5602 5603 5603
5630 5629 5629 5629 5628 5627 5627 5626 5625 5624 5624 5622 5621 5620 5619 5618 5617 5615 5613 5611 5609 5607 5605 5603 5602 5600 5599 5599 5598 5597 5596 5595 5595 5594 5594 5594 5594 5594 5594 5594 5594 5594 5595
5622 5621 5621 5621 5620 5619 5618 5617 5617 5616 5615 5614 5614 5613 5612 5610 5609 5607 5605 5603 5601 5599 5597 5596 5594 5592 5591 5591 5590 5589 5588 5588 5587 5586 5586 5586 5586 5586 5586 5586 5586 5586 5586
5613 5613 5612 5612 5611 5611 5610 5610 5609 5608 5607 5607 5606 5605 5604 5602 5601 5599 5597 5596 5594 5592 5590 5588 5586 5585 5583 5583 5582 5581 5580 5579 5579 5578 5578 5577 5577 5577 5577 5577 5577 5577 5577
5605 5605 5604 5603 5603 5602 5602 5601 5601 5600 5599 5599 5598 5597 5596 5595 5593 5591 5590 5588 5586 5584 5582 5580 5578 5577 5575 5575 5574 5573 5572 5571 5570 5570 5569 5569 5569 5569 5568 5568 5568 5568 5568
5597 5597 5596 5595 5595 5594 5594 5593 5593 5592 5592 5591 5590 5589 5588 5587 5585 5583 5581 5580 5578 5576 5574 5572 5571 5569 5568 5567 5566 5565 5564 5563 5562 5561 5561 5561 5560 5560 5560 5560 5559 5559 5559